�������l�o���
Date,Time,MP-1(��Sv/h),MP-2(��Sv/h),MP-3(��Sv/h),MP-4(��Sv/h),MP-5(��Sv/h),MP-6(��Sv/h),MP-7(��Sv/h),MP-8(��Sv/h),����,����(m/s),���J
2020/07/29,00:00,0.629,0.888,0.564,1.074,0.749,0.381,0.643,0.613,�k,4.6,�L
2020/07/29,00:10,0.629,0.887,0.565,1.072,0.745,0.380,0.643,0.613,�k�k��,5.0,�L
2020/07/29,00:20,0.627,0.888,0.566,1.069,0.750,0.380,0.643,0.613,�k,5.5,�L
2020/07/29,00:30,0.626,0.887,0.567,1.070,0.748,0.380,0.642,0.611,�k�k��,5.2,�L
2020/07/29,00:40,0.629,0.887,0.566,1.071,0.750,0.381,0.643,0.612,�k,4.2,�L
2020/07/29,00:50,0.628,0.885,0.565,1.071,0.748,0.381,0.643,0.612,�k�k��,4.8,�L
2020/07/29,01:00,0.626,0.881,0.567,1.063,0.744,0.382,0.641,0.609,�k,6.7,�L
2020/07/29,01:10,0.622,0.878,0.565,1.059,0.743,0.384,0.639,0.610,�k�k��,4.3,�L
2020/07/29,01:20,0.624,0.879,0.566,1.055,0.744,0.384,0.639,0.609,�k�k��,5.2,�L
2020/07/29,01:30,0.626,0.875,0.566,1.053,0.738,0.383,0.637,0.607,�k,6.3,�L
2020/07/29,01:40,0.624,0.874,0.566,1.051,0.738,0.383,0.636,0.608,-,CALM,�L
2020/07/29,01:50,0.626,0.874,0.566,1.050,0.740,0.385,0.637,0.607,�k,6.1,�L
2020/07/29,02:00,0.624,0.876,0.566,1.050,0.736,0.384,0.636,0.607,�k,6.0,�L
2020/07/29,02:10,0.625,0.877,0.567,1.049,0.736,0.384,0.638,0.608,�k,5.7,�L
2020/07/29,02:20,0.626,0.875,0.565,1.051,0.738,0.383,0.637,0.608,�k,5.8,�L
2020/07/29,02:30,0.622,0.873,0.564,1.049,0.737,0.384,0.637,0.608,�k�k��,6.8,�L
2020/07/29,02:40,0.620,0.871,0.561,1.042,0.731,0.383,0.636,0.606,�k,6.4,�L
2020/07/29,02:50,0.623,0.871,0.563,1.044,0.732,0.382,0.637,0.605,�k,7.4,�L
2020/07/29,03:00,0.625,0.877,0.564,1.051,0.732,0.384,0.637,0.607,�k�k��,7.6,�L
2020/07/29,03:10,0.625,0.878,0.564,1.049,0.731,0.385,0.636,0.608,�k�k��,6.4,�L
2020/07/29,03:20,0.624,0.870,0.563,1.044,0.729,0.382,0.637,0.606,�k,4.6,�L
2020/07/29,03:30,0.623,0.872,0.562,1.041,0.728,0.381,0.636,0.607,�k,4.5,�L
2020/07/29,03:40,0.624,0.874,0.561,1.041,0.727,0.382,0.636,0.606,�k,7.1,�L
2020/07/29,03:50,0.623,0.873,0.563,1.040,0.726,0.381,0.636,0.606,�k,7.6,�L
2020/07/29,04:00,0.625,0.874,0.561,1.041,0.726,0.382,0.637,0.606,�k,6.8,�L
2020/07/29,04:10,0.624,0.877,0.564,1.045,0.726,0.383,0.636,0.608,�k,7.8,�L
2020/07/29,04:20,0.626,0.879,0.564,1.045,0.728,0.381,0.637,0.609,�k�k��,6.9,�L
2020/07/29,04:30,0.627,0.880,0.564,1.050,0.731,0.383,0.638,0.609,�k,7.0,�L
2020/07/29,04:40,0.629,0.880,0.564,1.055,0.731,0.382,0.638,0.609,�k,6.3,�L
2020/07/29,04:50,0.627,0.883,0.563,1.052,0.732,0.381,0.639,0.609,�k,5.8,�L
2020/07/29,05:00,0.626,0.882,0.562,1.053,0.731,0.381,0.639,0.609,�k,7.5,�L
2020/07/29,05:10,0.625,0.880,0.563,1.054,0.732,0.380,0.639,0.609,�k,6.6,�L
2020/07/29,05:20,0.626,0.881,0.562,1.055,0.734,0.380,0.638,0.607,�k,6.8,�L
2020/07/29,05:30,0.624,0.880,0.561,1.054,0.729,0.379,0.639,0.610,�k,7.1,�L
2020/07/29,05:40,0.625,0.880,0.562,1.051,0.730,0.379,0.637,0.608,�k,6.6,�L
2020/07/29,05:50,0.626,0.879,0.562,1.051,0.733,0.380,0.637,0.608,�k�k��,7.5,�L
2020/07/29,06:00,0.623,0.881,0.562,1.053,0.734,0.378,0.638,0.609,�k,6.3,�L
2020/07/29,06:10,0.626,0.878,0.563,1.053,0.732,0.380,0.637,0.608,�k,5.6,�L
2020/07/29,06:20,0.625,0.880,0.563,1.052,0.733,0.380,0.637,0.609,�k,7.2,�L
2020/07/29,06:30,0.625,0.882,0.561,1.058,0.735,0.380,0.638,0.607,�k,6.2,�L
2020/07/29,06:40,0.626,0.882,0.562,1.056,0.736,0.379,0.639,0.609,�k,6.6,�L
2020/07/29,06:50,0.626,0.883,0.562,1.057,0.736,0.379,0.639,0.608,�k,6.8,�L
2020/07/29,07:00,0.626,0.882,0.562,1.058,0.736,0.378,0.641,0.608,�k,6.8,�L
2020/07/29,07:10,0.625,0.883,0.563,1.056,0.735,0.378,0.640,0.609,�k,6.2,�L
2020/07/29,07:20,0.624,0.885,0.561,1.059,0.736,0.378,0.639,0.608,�k,6.2,�L
2020/07/29,07:30,0.625,0.885,0.562,1.061,0.737,0.377,0.638,0.608,�k,7.0,�L
2020/07/29,07:40,0.628,0.885,0.561,1.061,0.738,0.377,0.640,0.609,�k,6.9,�L
2020/07/29,07:50,0.627,0.884,0.561,1.065,0.739,0.377,0.641,0.609,�k�k��,7.2,�L
2020/07/29,08:00,0.626,0.885,0.561,1.066,0.738,0.376,0.639,0.609,�k,7.2,�L
2020/07/29,08:10,0.623,0.885,0.563,1.066,0.739,0.377,0.642,0.609,�k,5.4,�L
2020/07/29,08:20,0.626,0.885,0.564,1.063,0.740,0.378,0.642,0.609,�k,6.6,�L
2020/07/29,08:30,0.627,0.885,0.563,1.067,0.740,0.378,0.642,0.609,�k,6.5,�L
2020/07/29,08:40,0.626,0.885,0.564,1.069,0.740,0.378,0.640,0.609,�k,7.6,�L
2020/07/29,08:50,0.626,0.888,0.563,1.069,0.742,0.380,0.640,0.610,�k,7.0,�L
2020/07/29,09:00,0.625,0.886,0.564,1.069,0.742,0.378,0.641,0.609,�k,6.6,�L
2020/07/29,09:10,0.628,0.887,0.564,1.073,0.740,0.378,0.643,0.608,�k,6.4,�L
2020/07/29,09:20,0.625,0.885,0.563,1.072,0.743,0.377,0.642,0.610,�k,6.9,�L
2020/07/29,09:30,0.627,0.886,0.563,1.073,0.742,0.379,0.640,0.609,�k,7.1,��
2020/07/29,09:40,0.626,0.886,0.564,1.074,0.743,0.376,0.641,0.611,�k�k��,7.2,��
2020/07/29,09:50,0.628,0.887,0.565,1.072,0.743,0.377,0.641,0.608,�k�k��,7.4,��
2020/07/29,10:00,0.627,0.884,0.564,1.074,0.744,0.378,0.643,0.607,�k,6.8,�L
2020/07/29,10:10,0.626,0.885,0.562,1.075,0.743,0.377,0.640,0.610,�k,7.6,��
2020/07/29,10:20,0.628,0.886,0.562,1.076,0.748,0.377,0.643,0.608,�k�k��,6.9,��
2020/07/29,10:30,0.628,0.887,0.563,1.073,0.747,0.376,0.643,0.610,�k�k��,8.0,��
2020/07/29,10:40,0.628,0.888,0.562,1.075,0.746,0.376,0.644,0.611,�k,7.7,��
2020/07/29,10:50,0.629,0.887,0.560,1.079,0.747,0.380,0.643,0.610,�k,7.7,��
2020/07/29,11:00,0.629,0.891,0.560,1.078,0.747,0.378,0.645,0.610,�k�k��,7.6,��
2020/07/29,11:10,0.629,0.889,0.561,1.079,0.748,0.378,0.645,0.609,�k,7.9,��
2020/07/29,11:20,0.629,0.892,0.561,1.080,0.747,0.377,0.644,0.611,�k�k��,6.5,��
2020/07/29,11:30,0.631,0.891,0.564,1.079,0.748,0.378,0.645,0.609,�k�k��,6.2,��
2020/07/29,11:40,0.630,0.893,0.564,1.081,0.748,0.378,0.645,0.610,�k�k��,7.7,��
2020/07/29,11:50,0.630,0.895,0.565,1.079,0.748,0.377,0.646,0.610,�k�k��,7.1,��
2020/07/29,12:00,0.630,0.894,0.565,1.080,0.751,0.379,0.646,0.613,�k�k��,7.2,��
2020/07/29,12:10,0.631,0.897,0.565,1.082,0.751,0.380,0.646,0.611,�k�k��,7.1,��
2020/07/29,12:20,0.631,0.896,0.566,1.079,0.751,0.378,0.646,0.612,�k�k��,6.2,��
2020/07/29,12:30,0.631,0.896,0.564,1.081,0.753,0.378,0.646,0.610,�k�k��,5.5,��
2020/07/29,12:40,0.632,0.897,0.564,1.082,0.753,0.378,0.646,0.611,�k�k��,6.2,��
2020/07/29,12:50,0.632,0.896,0.565,1.083,0.753,0.379,0.646,0.611,�k,5.6,��
2020/07/29,13:00,0.632,0.897,0.566,1.083,0.754,0.379,0.647,0.612,�k�k��,5.9,��
2020/07/29,13:10,0.633,0.896,0.567,1.082,0.757,0.378,0.646,0.611,�k�k��,5.9,��
2020/07/29,13:20,0.633,0.895,0.567,1.082,0.755,0.378,0.646,0.613,�k�k��,6.1,��
2020/07/29,13:30,0.632,0.893,0.567,1.081,0.756,0.379,0.646,0.613,�k�k��,6.7,��
2020/07/29,13:40,0.633,0.893,0.567,1.083,0.756,0.380,0.648,0.612,�k�k��,6.1,��
2020/07/29,13:50,0.632,0.894,0.567,1.084,0.757,0.379,0.647,0.614,�k�k��,6.4,��
2020/07/29,14:00,0.633,0.896,0.567,1.084,0.758,0.379,0.648,0.613,�k�k��,6.4,��
2020/07/29,14:10,0.634,0.896,0.568,1.085,0.756,0.380,0.648,0.615,�k�k��,6.4,��
2020/07/29,14:20,0.633,0.894,0.566,1.087,0.759,0.379,0.649,0.613,�k,6.0,��
2020/07/29,14:30,0.633,0.894,0.568,1.086,0.759,0.380,0.647,0.614,�k,5.6,��
2020/07/29,14:40,0.634,0.897,0.567,1.088,0.759,0.378,0.649,0.615,�k,5.1,��
2020/07/29,14:50,0.635,0.901,0.568,1.087,0.760,0.380,0.649,0.613,�k�k��,4.9,��
2020/07/29,15:00,0.636,0.899,0.568,1.088,0.759,0.381,0.649,0.614,�k�k��,5.3,��
2020/07/29,15:10,0.633,0.898,0.569,1.089,0.759,0.379,0.650,0.615,�k�k��,5.1,��
2020/07/29,15:20,0.633,0.901,0.569,1.087,0.760,0.378,0.649,0.613,�k�k��,5.6,�L
2020/07/29,15:30,0.636,0.899,0.568,1.090,0.762,0.380,0.647,0.613,�k�k��,5.2,�L
2020/07/29,15:40,0.635,0.900,0.569,1.092,0.758,0.380,0.650,0.614,�k�k��,5.3,��
2020/07/29,15:50,0.635,0.900,0.568,1.090,0.761,0.380,0.648,0.614,�k�k��,4.7,��
2020/07/29,16:00,0.632,0.901,0.568,1.091,0.761,0.380,0.648,0.615,�k�k��,4.2,��
2020/07/29,16:10,0.634,0.902,0.568,1.091,0.760,0.380,0.650,0.613,�k,3.9,��
2020/07/29,16:20,0.635,0.902,0.569,1.091,0.761,0.379,0.649,0.614,�k�k��,3.3,��
2020/07/29,16:30,0.632,0.903,0.569,1.091,0.762,0.379,0.648,0.614,�k�k��,3.8,��
2020/07/29,16:40,0.635,0.903,0.569,1.091,0.762,0.381,0.651,0.615,�k�k��,3.4,��
2020/07/29,16:50,0.635,0.902,0.569,1.091,0.762,0.379,0.650,0.616,�k�k��,3.9,��
2020/07/29,17:00,0.635,0.903,0.568,1.091,0.762,0.379,0.650,0.615,�k�k��,3.8,��
2020/07/29,17:10,0.635,0.904,0.567,1.093,0.762,0.381,0.651,0.615,�k�k��,3.6,��
2020/07/29,17:20,0.635,0.902,0.569,1.095,0.761,0.380,0.649,0.614,�k�k��,3.8,��
2020/07/29,17:30,0.635,0.902,0.568,1.092,0.763,0.380,0.651,0.617,�k�k��,3.2,��
2020/07/29,17:40,0.636,0.904,0.569,1.093,0.763,0.380,0.650,0.615,�k,3.2,��
2020/07/29,17:50,0.635,0.901,0.571,1.092,0.763,0.379,0.649,0.616,�k�k��,3.0,��
2020/07/29,18:00,0.637,0.904,0.569,1.093,0.764,0.378,0.649,0.614,�k�k��,2.9,��
2020/07/29,18:10,0.636,0.904,0.570,1.095,0.765,0.381,0.650,0.615,�k�k��,2.5,��
2020/07/29,18:20,0.634,0.904,0.570,1.092,0.765,0.381,0.649,0.616,�k�k��,3.4,��
2020/07/29,18:30,0.635,0.907,0.571,1.092,0.764,0.380,0.650,0.615,�k�k��,3.2,��
2020/07/29,18:40,0.635,0.906,0.572,1.094,0.764,0.380,0.650,0.616,�k�k��,2.5,��
2020/07/29,18:50,0.635,0.906,0.572,1.093,0.767,0.382,0.651,0.617,�k,2.5,��
2020/07/29,19:00,0.635,0.906,0.573,1.093,0.765,0.380,0.651,0.617,�k,2.5,��
2020/07/29,19:10,0.633,0.907,0.571,1.094,0.768,0.380,0.650,0.619,�k�k��,2.8,��
2020/07/29,19:20,0.637,0.909,0.573,1.093,0.766,0.380,0.652,0.616,�k�k��,2.3,��
2020/07/29,19:30,0.635,0.908,0.572,1.091,0.768,0.380,0.652,0.616,�k,3.2,��
2020/07/29,19:40,0.636,0.909,0.573,1.093,0.768,0.381,0.652,0.617,�k,2.8,��
2020/07/29,19:50,0.637,0.909,0.573,1.097,0.767,0.382,0.652,0.617,�k�k��,2.6,��
2020/07/29,20:00,0.637,0.909,0.573,1.093,0.769,0.380,0.652,0.618,�k�k��,2.2,��
2020/07/29,20:10,0.636,0.907,0.572,1.093,0.770,0.382,0.652,0.617,�k�k��,2.0,��
2020/07/29,20:20,0.638,0.909,0.574,1.096,0.767,0.381,0.651,0.618,�k�k��,2.0,��
2020/07/29,20:30,0.637,0.909,0.572,1.096,0.769,0.381,0.653,0.619,�k�k��,2.8,��
2020/07/29,20:40,0.636,0.909,0.573,1.096,0.768,0.381,0.652,0.617,�k�k��,2.0,��
2020/07/29,20:50,0.638,0.910,0.575,1.095,0.769,0.381,0.651,0.619,�k,1.7,��
2020/07/29,21:00,0.638,0.909,0.574,1.095,0.768,0.382,0.652,0.619,�k,2.0,��
2020/07/29,21:10,0.639,0.908,0.573,1.096,0.772,0.382,0.653,0.618,�k,1.5,��
2020/07/29,21:20,0.638,0.910,0.573,1.098,0.769,0.381,0.653,0.618,�k��,1.5,��
2020/07/29,21:30,0.638,0.908,0.573,1.094,0.769,0.382,0.652,0.619,�k�k��,1.7,��
2020/07/29,21:40,0.637,0.911,0.571,1.094,0.769,0.381,0.654,0.620,�k,1.7,��
2020/07/29,21:50,0.638,0.909,0.572,1.095,0.769,0.382,0.654,0.620,�k,1.9,��
2020/07/29,22:00,0.638,0.908,0.573,1.094,0.771,0.383,0.653,0.619,�k�k��,1.5,��
2020/07/29,22:10,0.640,0.910,0.572,1.097,0.771,0.383,0.654,0.620,�k,1.5,��
2020/07/29,22:20,0.639,0.910,0.571,1.095,0.770,0.382,0.653,0.618,�k,1.4,��
2020/07/29,22:30,0.639,0.910,0.572,1.095,0.771,0.383,0.653,0.620,�k,2.0,��
2020/07/29,22:40,0.639,0.909,0.573,1.095,0.771,0.383,0.654,0.621,�k,2.0,��
2020/07/29,22:50,0.639,0.910,0.573,1.097,0.771,0.384,0.653,0.618,�k,1.5,��
2020/07/29,23:00,0.639,0.909,0.573,1.097,0.772,0.383,0.654,0.620,-,CALM,��
2020/07/29,23:10,0.638,0.909,0.573,1.096,0.771,0.384,0.653,0.619,-,CALM,��
2020/07/29,23:20,0.640,0.909,0.573,1.099,0.772,0.383,0.655,0.620,�k�k��,1.2,��
2020/07/29,23:30,0.639,0.911,0.573,1.098,0.771,0.382,0.654,0.619,�k��,1.5,��
2020/07/29,23:40,0.639,0.909,0.575,1.098,0.770,0.382,0.653,0.617,�k��,1.4,��
2020/07/29,23:50,0.639,0.911,0.572,1.097,0.773,0.383,0.653,0.620,�k�k��,0.9,��
